Wind_Speed
10 12 14 20 20 19 20 20 17 16 16 23 21 18 11 16 15 11 14 10 10 10 7 13 20 20 27 44 46 47 39 26 25 35 31 24 20 16 15 11 16 20 23 19
11 17 16 15 17 21 21 22 20 13 24 19 21 19 15 10 17 18 10 17 14 9 10 8 20 20 29 38 39 39 42 41 44 36 29 28 21 14 16 13 10 12 12 10
11 19 20 19 22 24 21 20 19 15 14 21 9 20 11 19 14 12 10 10 16 16 16 13 10 16 29 32 38 37 38 33 38 31 30 24 17 13 12 15 13 12 10 10
15 14 17 22 22 20 17 17 20 20 16 12 16 11 12 19 20 11 14 10 10 12 16 12 8 8 26 30 31 28 26 26 28 29 26 24 21 14 13 17 16 13 11 10
6 8 12 17 19 22 17 17 17 21 17 11 19 11 16 16 15 20 11 9 10 10 13 14 9 16 28 37 31 23 18 13 23 28 28 24 19 23 21 20 19 19 15 10
12 11 13 15 15 19 15 19 18 16 16 13 18 10 17 15 26 11 8 13 13 11 10 10 11 25 30 32 31 28 18 24 23 31 27 25 25 21 21 23 21 15 11 9
4 16 18 12 9 13 9 8 9 7 13 9 15 10 10 10 14 19 18 16 15 13 10 9 14 14 26 29 30 29 28 25 24 25 20 19 15 14 20 23 19 16 13 10
4 4 9 18 19 7 9 8 3 7 6 14 12 7 10 9 12 14 14 15 15 12 10 10 12 12 26 33 32 30 27 23 22 19 15 12 10 19 17 18 20 19 16 11
4 3 11 10 8 16 6 9 10 5 6 7 6 9 5 12 7 3 16 19 20 12 10 12 13 12 27 31 31 34 31 27 22 16 18 19 20 25 27 25 23 18 13 11
4 6 7 9 0 8 9 5 5 4 9 5 7 19 7 7 7 11 7 21 20 13 10 12 13 19 27 31 32 31 28 29 28 28 31 31 27 27 29 26 24 22 18 13
7 4 1 5 7 10 7 13 11 3 4 6 7 9 14 3 12 14 12 15 15 17 20 21 20 25 31 32 33 34 32 32 34 35 32 31 28 26 24 22 19 17 14 11
2 3 6 9 6 1 1 6 10 4 10 1 1 2 13 4 16 21 16 22 23 23 22 19 20 25 30 32 29 32 33 33 30 31 34 30 25 21 21 18 15 12 12 11
1 1 5 5 3 3 3 6 8 7 5 7 2 1 11 12 14 17 24 19 22 23 22 19 19 19 26 30 32 32 31 30 31 32 30 27 23 21 19 18 15 14 15 16
7 3 6 5 7 4 7 9 12 11 4 5 2 3 6 7 17 20 20 21 21 21 22 21 19 20 27 29 32 32 30 30 29 33 29 26 22 20 19 17 17 16 15 17
2 5 10 17 17 14 10 9 10 13 14 5 6 4 6 3 12 22 22 23 23 23 23 21 20 18 25 28 31 32 31 32 33 31 28 25 22 20 20 19 17 16 15 17
3 3 4 13 17 14 7 13 12 1 12 8 6 1 11 3 13 21 24 25 24 23 21 21 20 20 23 27 29 32 32 33 30 28 26 24 25 23 21 20 19 18 17 17
3 2 2 4 13 9 4 13 11 9 8 5 4 5 12 13 15 20 25 25 24 23 21 20 19 17 24 26 31 32 34 31 30 28 26 25 24 23 21 20 21 20 19 15
4 2 2 4 8 2 7 14 11 16 12 3 6 13 16 19 19 18 19 26 24 22 22 20 18 25 27 31 35 36 33 30 29 27 26 24 24 23 21 21 19 16 17 17
7 1 4 1 2 8 14 8 10 20 7 10 14 21 25 25 28 18 18 22 21 23 18 24 27 29 31 33 34 34 32 29 27 25 26 24 22 21 20 19 17 17 15 15
8 5 3 5 3 4 4 17 22 16 6 14 16 21 27 27 18 9 14 21 22 25 27 29 31 32 33 32 33 32 28 26 24 24 24 22 21 19 17 17 17 15 15 14
4 3 2 2 4 4 7 23 17 4 7 14 15 11 19 20 13 17 17 20 27 27 30 33 32 28 28 30 31 27 26 24 23 23 25 23 21 19 19 19 18 18 17 17
4 6 3 2 3 4 3 9 4 13 19 19 17 22 25 24 20 21 19 18 19 23 27 28 27 26 28 26 27 26 25 22 20 22 23 25 23 20 18 18 18 20 20 20
3 6 4 5 2 7 14 16 18 20 25 20 20 17 27 23 20 20 17 17 17 24 26 26 27 26 25 25 26 25 20 17 19 21 22 23 22 21 21 24 23 24 22 22
9 11 4 6 11 18 19 20 21 21 21 19 20 18 19 23 18 19 16 15 16 22 23 24 24 23 22 22 24 22 17 17 19 20 21 21 23 24 23 23 25 25 25 21
3 10 9 5 10 18 16 20 23 22 23 23 21 21 20 18 16 15 15 15 21 22 23 22 22 23 24 24 23 19 17 18 20 21 19 19 21 22 24 26 23 22 21 24
7 6 4 4 9 14 10 15 23 23 22 23 25 19 15 11 14 15 15 22 24 22 21 20 22 23 24 24 23 19 17 17 19 18 20 21 20 19 18 17 19 18 17 17
Wind_Direction
237 248 227 223 234 246 241 249 236 240 212 224 241 224 205 205 233 238 211 204 199 211 246 228 235 246 153 165 170 174 176 174 183 209 194 181 190 144 134 158 168 179 187 194
283 253 239 242 257 251 248 245 253 238 242 214 231 234 215 190 216 228 212 200 195 204 219 243 234 233 154 164 172 171 178 193 201 195 186 194 182 167 159 162 165 172 185 194
209 258 233 233 239 250 242 236 246 248 253 237 217 227 229 213 208 201 211 183 197 191 206 222 218 192 148 157 164 172 175 178 175 178 186 185 171 183 158 164 167 186 185 200
213 224 245 231 229 234 237 251 246 255 249 249 218 228 223 219 205 207 210 195 188 187 200 212 196 159 138 140 163 162 165 168 173 179 179 181 179 171 192 202 196 182 166 174
253 289 306 268 243 218 242 240 247 244 251 252 262 235 222 203 196 207 200 192 196 188 190 209 195 146 143 149 151 155 166 190 186 177 181 177 181 192 186 185 174 176 179 175
288 264 245 268 301 272 241 229 245 249 239 246 247 243 223 187 195 182 204 205 195 189 192 189 183 141 150 158 163 178 184 183 191 178 179 184 189 190 179 165 167 162 152 169
286 243 241 250 283 268 249 255 216 215 230 222 234 243 249 207 184 187 205 198 186 183 182 169 155 139 138 150 145 155 167 165 167 172 176 180 188 199 185 171 154 147 137 140
240 1 194 190 213 210 257 229 185 173 186 219 215 206 227 202 195 198 197 188 170 168 166 142 147 139 129 137 138 138 139 143 151 161 181 170 152 121 138 152 142 132 126 120
318 355 313 292 235 192 266 246 241 164 187 217 172 244 219 263 165 337 220 177 173 159 157 140 147 150 126 125 128 130 136 141 141 130 116 119 122 110 106 112 113 106 105 105
317 300 215 280 71 161 199 273 239 234 184 184 195 215 224 210 87 34 13 168 161 149 127 102 125 108 113 112 111 113 121 114 117 109 98 98 104 104 103 103 95 94 92 86
339 298 285 311 200 181 164 233 240 184 152 205 183 213 208 250 119 85 47 76 106 94 94 102 102 103 105 105 107 103 102 102 100 106 106 105 99 96 97 93 92 93 95 88
91 272 270 243 293 243 128 275 196 217 218 233 80 252 337 240 120 103 81 90 94 99 100 102 105 105 103 101 101 102 100 97 97 100 101 99 98 98 96 95 89 85 77 64
316 326 307 306 118 192 210 202 211 195 338 205 149 320 347 92 107 103 110 101 103 104 102 100 97 97 101 106 105 101 99 96 98 100 100 95 94 92 86 82 79 71 63 57
148 230 248 262 289 302 298 232 183 182 117 220 273 56 12 87 118 111 104 105 103 102 104 101 102 101 103 105 103 103 100 100 99 95 96 95 93 90 88 82 75 71 70 58
92 247 238 263 261 249 247 273 226 214 186 157 221 214 153 149 133 120 111 106 103 103 102 106 107 106 105 103 102 101 100 98 100 100 98 96 95 91 87 81 76 67 61 53
188 269 288 277 243 247 240 249 183 297 164 136 227 210 136 176 138 112 108 107 103 104 104 102 98 94 94 98 99 97 97 102 104 104 100 95 88 84 78 71 63 58 53 45
207 258 285 277 164 181 246 179 175 122 105 97 25 186 142 123 104 111 111 105 106 105 101 95 92 90 92 92 93 90 95 100 98 96 93 90 86 83 78 73 66 55 50 44
199 213 242 274 139 106 343 139 123 114 104 179 136 144 116 101 95 87 100 105 103 100 96 92 91 90 90 91 90 94 94 92 92 91 89 89 86 83 77 71 63 57 53 49
175 353 286 283 11 140 40 89 110 118 100 139 110 106 111 103 86 71 92 95 98 95 93 93 89 86 86 87 94 93 91 88 85 86 86 87 86 79 70 61 56 57 54 53
152 226 285 345 41 76 219 115 120 111 77 115 115 126 123 112 94 96 93 94 91 87 88 86 80 80 83 92 96 91 88 85 78 78 89 88 83 75 71 63 58 58 56 51
334 350 52 340 82 93 247 162 186 85 145 129 107 86 102 97 105 118 97 89 89 90 87 85 81 79 84 93 93 84 85 83 87 87 90 86 78 74 72 68 62 62 56 57
341 328 31 321 68 151 201 219 304 126 119 112 107 112 102 106 108 99 101 96 92 93 88 87 88 83 88 91 92 88 88 91 91 93 86 79 73 69 69 69 64 63 54 53
18 3 310 14 359 44 58 89 106 112 116 117 110 111 111 105 103 99 102 101 93 92 91 92 91 89 88 91 93 91 94 99 99 95 89 81 76 71 61 60 62 61 55 46
342 9 13 350 13 88 81 81 88 96 102 107 104 101 99 107 105 107 107 105 106 102 102 104 105 101 96 95 95 95 99 103 102 95 96 84 73 70 68 59 53 59 53 45
328 315 317 2 24 75 76 99 104 103 104 97 90 98 98 102 105 113 112 109 104 102 104 105 106 107 103 100 96 99 100 98 94 96 92 92 77 68 65 63 58 62 63 58
339 339 358 10 1 81 85 104 114 109 108 108 110 99 75 76 102 102 99 101 103 103 105 102 100 104 116 109 101 98 101 107 96 85 95 96 85 74 73 66 67 65 65 62
Height
699 705 701 696 693 689 688 692 688 678 665 676 676 678 679 672 675 680 679 683 683 681 677 679 683 689 701 702 704 709 721 729 738 737 755 746 754 755 759 765 766 770 775 777
708 702 694 691 693 690 689 690 687 672 663 669 670 677 667 670 669 669 677 675 677 680 679 678 679 689 700 699 704 713 721 732 739 743 745 752 754 756 758 764 766 771 774 775
710 704 684 690 694 690 683 686 685 685 664 658 669 679 673 660 661 662 666 665 668 673 675 675 681 687 693 699 707 716 720 729 731 738 745 749 752 756 758 761 766 771 770 773
689 681 684 691 686 685 694 678 676 677 681 691 656 695 675 662 661 660 660 665 667 668 668 670 678 682 691 696 703 710 718 722 727 733 738 742 745 751 757 761 766 769 768 772
684 685 694 683 685 676 682 673 674 672 680 683 670 679 665 653 665 657 657 661 662 663 663 667 672 680 687 692 699 707 718 726 726 729 735 740 747 751 756 762 767 768 767 767
683 670 679 682 682 674 666 673 676 672 674 697 673 677 666 656 644 653 651 652 656 657 660 663 666 677 684 687 696 707 711 725 730 732 737 742 747 754 755 758 763 764 765 769
678 672 668 675 688 673 671 684 693 701 690 692 666 671 668 642 635 638 643 646 649 650 656 664 666 674 682 689 699 709 720 726 730 734 735 742 752 755 753 757 761 763 766 770
684 673 667 664 675 668 674 679 685 706 709 685 660 673 662 626 624 629 631 636 642 648 652 662 663 671 682 690 701 709 717 723 729 735 741 747 753 752 754 760 763 766 767 771
686 678 667 658 651 660 678 680 666 676 674 683 670 656 641 626 625 633 624 629 636 644 650 661 663 668 682 691 700 707 718 727 732 740 743 749 755 756 759 763 766 768 771 773
687 684 670 658 657 658 671 667 678 670 681 689 668 661 667 640 644 642 630 621 632 643 651 660 667 676 686 695 705 713 723 730 735 742 748 752 758 760 762 766 769 770 772 773
690 686 669 665 659 654 665 666 663 664 674 688 682 664 636 639 645 650 644 636 641 652 661 669 678 688 693 703 711 717 728 736 741 745 751 756 761 763 764 768 771 774 776 779
701 703 690 663 643 647 655 662 658 674 677 666 674 670 657 647 642 643 653 649 654 661 671 681 687 695 701 711 720 725 732 739 746 750 752 758 763 767 770 774 778 780 782 783
701 694 692 658 652 647 660 651 657 666 672 675 686 679 663 653 654 651 654 660 663 669 678 687 694 702 711 720 726 732 739 745 751 755 757 763 769 774 777 780 784 785 785 785
697 698 689 682 669 673 669 646 645 658 683 676 685 678 675 669 663 660 663 667 672 678 685 694 705 712 721 729 733 739 747 753 757 758 765 771 777 780 783 785 786 787 787 784
702 691 684 668 659 656 661 655 647 651 661 686 684 680 682 678 672 663 668 675 681 690 697 705 713 723 729 734 740 746 752 757 760 767 773 778 782 784 786 787 787 788 788 787
707 689 680 668 653 647 652 646 642 639 644 665 671 678 679 680 675 670 676 683 693 701 709 715 722 728 737 743 747 749 756 762 769 774 778 783 785 787 789 790 790 790 790 789
700 691 677 650 638 648 655 641 640 646 649 659 685 677 674 677 682 680 684 692 703 712 720 725 731 738 744 749 750 752 761 768 774 779 783 786 788 790 792 793 793 792 792 792
685 690 676 654 640 652 631 621 629 657 664 674 677 674 679 677 691 696 699 700 713 720 729 735 740 746 752 754 755 761 769 776 780 784 788 790 792 794 795 794 795 796 795 795
678 690 669 657 655 645 652 649 654 655 679 676 681 679 688 690 697 719 718 718 724 727 737 742 748 752 757 760 765 770 777 783 787 791 793 795 797 798 798 797 798 798 798 797
677 679 673 655 646 658 664 652 650 659 688 686 685 689 686 688 712 737 733 729 735 740 746 747 754 759 764 771 775 778 785 790 794 797 798 800 800 800 801 802 801 801 801 799
673 677 672 665 655 663 658 646 646 663 694 694 696 694 698 705 724 735 738 739 742 749 752 754 762 769 776 780 783 787 792 797 800 801 802 802 803 804 804 804 804 804 802 802
687 679 674 669 657 665 659 656 660 677 689 702 707 712 715 721 733 737 746 748 752 754 760 765 772 780 785 788 790 794 797 801 804 805 806 805 805 807 807 807 807 805 804 804
686 697 688 684 682 669 661 667 673 681 692 708 715 723 718 731 740 746 753 758 762 766 770 776 781 788 793 796 797 798 803 806 808 808 807 808 810 812 811 809 808 807 807 806
710 705 696 684 682 679 687 692 696 701 711 719 723 733 734 737 748 754 760 765 771 776 780 785 790 795 798 802 803 804 807 810 809 809 810 812 813 814 813 813 813 813 812 811
730 724 712 696 695 696 705 706 711 719 726 731 738 741 746 750 758 761 766 772 777 782 788 792 795 799 802 805 807 810 811 811 810 811 813 816 816 817 817 818 819 819 819 818
740 731 724 716 712 708 720 722 723 728 735 739 744 754 757 763 764 769 774 779 783 789 794 797 799 801 806 808 810 811 811 812 812 813 815 818 820 821 823 824 824 825 824 822